{"data":{"norad_id":67774,"intl_designator":"2026-030L","name":"KUIPER-00205","alt_names":[],"object_type":"PAYLOAD","status":"ACTIVE","operator":null,"country":"US","launch_date":"2026-02-12","launch_site_code":"FRGUI","launch_vehicle":null,"mission":null,"orbit_class":"UNKNOWN","rcs_meters":null,"size_class":null,"mass_kg":null,"dimensions":null,"purposes":[],"wikipedia_slug":null,"has_3d_model":false,"image_url":null,"decayed_at":null,"tle_current":{"epoch":"2026-05-25T04:00:03.998880Z","epoch_age_seconds":60724,"freshness":"FRESH","line1":"1 67774U 26030L   26145.16671295  .00046408  00000+0  16048-2 0  9999","line2":"2 67774  51.8828 209.3658 0002919 304.7084 236.7654 15.29442010  5438","mean_motion":15.2944201,"eccentricity":0.0002919,"inclination_deg":51.8828,"raan_deg":209.3658,"arg_perigee_deg":304.7084,"mean_anomaly_deg":236.7654,"bstar":0.0016048,"rev_number":543,"period_min":94.151984225933,"perigee_km":475.47807121169,"apogee_km":479.48037996419,"semimajor_km":6855.6162255879,"source":"CELESTRAK","updated_at":"2026-05-25T13:38:07.257330Z"}}}